Weather History for PHTO - March, 2013

Change the Weather History Date:

Friday, March 29, 2013

  Actual Average Record
Temperature  
Mean Temperature 71 °F 72 °F  
Max Temperature 78 °F 79 °F 86 °F (2002)
Min Temperature 64 °F 65 °F 60 °F (2012)
Degree Days  
Heating Degree Days 0 0  
Month to date heating degree days 0 0  
Since 1 July heating degree days 0 0  
Cooling Degree Days 6 7  
Month to date cooling degree days 191 200  
Year to date cooling degree days 563 570  
Growing Degree Days 21 (Base 50)    
Moisture  
Dew Point 64 °F    
Average Humidity 79    
Maximum Humidity 93    
Minimum Humidity 64    
Precipitation  
Precipitation 0.14 in 0.46 in 3.16 in (2005)
Month to date precipitation 2.63 12.53  
Year to date precipitation 34.13 31.35  
Snow  
Snow 0.00 in - - ()
Month to date snowfall 0.0  
Since 1 July snowfall 0.0  
Snow Depth 0.00 in    
Sea Level Pressure  
Sea Level Pressure 30.03 in    
Wind  
Wind Speed 6 mph (SSW)    
Max Wind Speed 15 mph    
Max Gust Speed 20 mph    
Visibility 9 miles    
Events Rain    
T = Trace of Precipitation, MM = Missing Value Source: NWS Daily Summary

Daily Weather History Graph

Daily Weather History Graph

Search for Another Location

Airport or City:

Trip Planner

Search our weather history database for the weather conditions in past years. The results will help you decide how hot, cold, wet, or windy it might be!

Date:

Astronomy

Mar. 29, 2013 Rise Set
Actual Time 6:16 AM HST 6:33 PM HST
Civil Twilight 5:54 AM HST 6:55 PM HST
Nautical Twilight 5:28 AM HST 7:21 PM HST
Astronomical Twilight 5:02 AM HST 7:47 PM HST
Moon 9:17 PM HST (3/29) 7:57 AM HST (3/29)
Length of Visible Light 13h 01m
Length of Day
12h 17m
Waning Gibbous, 92% of the Moon is Illuminated
Mar 29
Waning Gibbous
Apr 2
Last Quarter
Apr 9
New
Apr 18
First Quarter
Apr 25
Full

Hourly Weather History & Observations

Time (HST) Temp. Dew Point Humidity Pressure Visibility Wind Dir Wind Speed Gust Speed Precip Events Conditions
12:26 AM 66.0 °F 63.0 °F 90% 30.06 in 10.0 mi WSW 4.6 mph - 0.00 in   Mostly Cloudy
12:53 AM 66.0 °F 63.0 °F 90% 30.05 in 10.0 mi WSW 5.8 mph - 0.00 in   Scattered Clouds
1:53 AM 64.9 °F 62.1 °F 90% 30.02 in 10.0 mi SW 6.9 mph - N/A   Scattered Clouds
2:24 AM 64.9 °F 63.0 °F 93% 30.03 in 2.5 mi SW 4.6 mph - 0.00 in Rain Heavy Rain
2:37 AM 64.9 °F 62.1 °F 90% 30.02 in 10.0 mi SW 8.1 mph - 0.10 in Rain Light Rain
2:50 AM 64.4 °F 62.6 °F 94% 30.02 in 10.0 mi WSW 5.8 mph - 0.10 in   Overcast
2:53 AM 64.9 °F 62.1 °F 90% 30.02 in 10.0 mi WSW 5.8 mph - 0.10 in   Overcast
3:53 AM 64.0 °F 61.0 °F 90% 30.00 in 10.0 mi WSW 3.5 mph - 0.00 in   Scattered Clouds
4:53 AM 64.0 °F 60.1 °F 87% 30.01 in 10.0 mi SW 5.8 mph - 0.01 in   Mostly Cloudy
5:53 AM 64.9 °F 61.0 °F 87% 30.03 in 10.0 mi South 4.6 mph - N/A   Mostly Cloudy
6:53 AM 64.9 °F 61.0 °F 87% 30.03 in 10.0 mi SW 4.6 mph - 0.00 in   Overcast
7:53 AM 68.0 °F 63.0 °F 84% 30.04 in 10.0 mi Calm Calm - N/A   Mostly Cloudy
8:53 AM 73.9 °F 64.0 °F 71% 30.06 in 10.0 mi Calm Calm - N/A   Mostly Cloudy
9:40 AM 75.9 °F 66.0 °F 71% 30.07 in 10.0 mi NE 9.2 mph - N/A   Mostly Cloudy
9:53 AM 75.9 °F 66.0 °F 71% 30.07 in 10.0 mi NE 8.1 mph - N/A   Mostly Cloudy
10:53 AM 75.0 °F 66.0 °F 73% 30.06 in 10.0 mi NE 13.8 mph 19.6 mph N/A   Mostly Cloudy
11:00 AM 78.1 °F 68.0 °F 71% 30.06 in 10.0 mi NE 13.8 mph - N/A   Mostly Cloudy
11:35 AM 73.9 °F 64.9 °F 73% 30.06 in 10.0 mi East 8.1 mph - 0.00 in   Mostly Cloudy
11:53 AM 77.0 °F 64.9 °F 66% 30.05 in 10.0 mi NE 8.1 mph - 0.00 in   Mostly Cloudy
12:53 PM 77.0 °F 64.0 °F 64% 30.02 in 10.0 mi NE 11.5 mph - N/A   Mostly Cloudy
1:02 PM 75.9 °F 64.0 °F 67% 30.02 in 10.0 mi NE 9.2 mph - N/A   Mostly Cloudy
1:10 PM 75.9 °F 64.0 °F 67% 30.01 in 10.0 mi NE 8.1 mph - N/A   Mostly Cloudy
1:42 PM 75.0 °F 64.0 °F 69% 30.00 in 10.0 mi ENE 10.4 mph - N/A   Overcast
1:53 PM 75.0 °F 64.0 °F 69% 29.99 in 10.0 mi East 10.4 mph - N/A   Overcast
2:06 PM 75.0 °F 63.0 °F 66% 29.99 in 10.0 mi East 8.1 mph - N/A   Overcast
2:48 PM 75.2 °F 64.4 °F 69% 29.98 in 10.0 mi East 10.4 mph 17.3 mph N/A   Overcast
2:53 PM 75.0 °F 64.0 °F 69% 29.97 in 10.0 mi East 8.1 mph - N/A   Overcast
3:20 PM 71.1 °F 66.0 °F 84% 29.98 in 7.0 mi East 5.8 mph - 0.00 in Rain Light Rain
3:53 PM 71.1 °F 64.9 °F 81% 29.97 in 7.0 mi ENE 3.5 mph - 0.02 in Rain Light Rain
4:11 PM 72.0 °F 66.9 °F 84% 29.98 in 9.0 mi South 4.6 mph - 0.01 in Rain Light Rain
4:53 PM 70.0 °F 66.0 °F 87% 29.99 in 10.0 mi West 4.6 mph - 0.01 in   Overcast
5:53 PM 71.1 °F 66.0 °F 84% 30.00 in 10.0 mi Calm Calm - N/A   Overcast
6:32 PM 70.0 °F 66.0 °F 87% 30.01 in 10.0 mi WSW 5.8 mph - N/A   Overcast
6:53 PM 70.0 °F 64.9 °F 84% 30.03 in 10.0 mi SW 6.9 mph - N/A   Overcast
7:53 PM 68.0 °F 64.9 °F 90% 30.04 in 8.0 mi WSW 9.2 mph - 0.02 in Rain Light Rain
8:53 PM 68.0 °F 64.9 °F 90% 30.06 in 9.0 mi WSW 6.9 mph - 0.08 in Rain Light Rain
9:53 PM 66.9 °F 64.9 °F 93% 30.07 in 7.0 mi West 6.9 mph - 0.08 in Rain Light Rain
10:53 PM 66.9 °F 64.9 °F 93% 30.06 in 4.0 mi WSW 9.2 mph - 0.20 in Rain Rain
11:28 PM 66.9 °F 64.9 °F 93% 30.07 in 3.0 mi SSW 3.5 mph - 0.07 in Rain Heavy Rain
11:53 PM 66.9 °F 64.9 °F 93% 30.06 in 3.0 mi SW 3.5 mph - 0.16 in Rain Rain